Location: Unspecified
(45.3712°N, 0.6436°E)
Time: 09:19:29
(UTC+01:00)

Envisat - Visible Passes

Search period start: 15 November 2019 00:00
Search period end: 25 November 2019 00:00
Orbit: 764 x 766 km, 98.1° (Epoch: 14 November)

Date Brightness Start Highest point End Pass type
(mag) Time Alt. Az. Time Alt. Az. Time Alt. Az.
15 Nov 3.3 19:05:55 10° S 19:10:58 70° WSW 19:16:04 10° NNW visible
16 Nov 5.0 07:12:50 10° NNE 07:17:29 34° E 07:22:05 10° SSE visible
16 Nov 3.0 18:29:18 10° SSE 18:34:15 56° ENE 18:39:14 10° N visible
16 Nov 5.6 20:09:58 10° SW 20:13:37 20° W 20:17:17 10° NW visible
17 Nov 6.0 06:37:11 10° NE 06:40:22 16° E 06:43:32 10° SE visible
17 Nov 3.9 17:53:28 10° ESE 17:57:43 28° ENE 18:01:59 10° N visible
17 Nov 4.3 19:31:47 10° SSW 19:36:33 41° W 19:41:22 10° NNW visible
18 Nov 3.0 18:54:36 10° SSE 18:59:42 87° W 19:04:49 10° NNW visible
18 Nov 6.2 20:37:59 10° WSW 20:39:28 11° W 20:40:56 10° WNW visible
19 Nov 5.4 07:01:47 10° NE 07:06:08 28° E 07:10:27 10° SSE visible
19 Nov 3.3 18:18:12 10° SE 18:23:02 45° ENE 18:27:52 10° N visible
19 Nov 5.2 19:58:08 10° SSW 20:02:14 24° W 20:06:22 10° NW visible
20 Nov 6.2 06:26:38 10° ENE 06:28:57 13° E 06:31:15 10° ESE visible
20 Nov 3.8 19:20:18 10° S 19:25:14 51° W 19:30:12 10° NNW visible
21 Nov 4.3 07:26:52 10° NNE 07:31:47 47° E 07:36:40 10° S visible
21 Nov 2.9 18:43:22 10° SSE 18:48:25 76° ENE 18:53:32 10° N visible
21 Nov 5.9 20:25:20 10° WSW 20:28:02 14° W 20:30:44 10° NW visible
22 Nov 5.7 06:50:48 10° NE 06:54:45 22° E 06:58:41 10° SE visible
22 Nov 3.5 18:07:12 10° SE 18:11:49 36° ENE 18:16:27 10° N visible
22 Nov 4.9 19:46:26 10° SSW 19:50:53 30° W 19:55:21 10° NNW visible
23 Nov 3.4 19:08:54 10° S 19:13:56 64° WSW 19:19:00 10° NNW visible
24 Nov 4.7 07:15:44 10° NNE 07:20:27 37° E 07:25:09 10° SSE visible
24 Nov 3.0 18:32:11 10° SSE 18:37:11 61° ENE 18:42:12 10° N visible
24 Nov 5.7 20:13:11 10° SW 20:16:37 18° W 20:20:03 10° NW visible
